Retour au catalogue

AYAME 1 DEB

ActifHEO
NORAD 32483·DEBRIS·🇯🇵 Japan

Lancé Feb 6, 1979 depuis Tanegashima Space Center

Loading…

Prochains Passages (prochaines 24 heures)

TLE

FraisSource: Space-Track

Époque: Sep 14, 2026, 09:39 UTC

1 32483U 79009D   26257.40274823 -.00000102  00000-0  00000-0 0  9991
2 32483   7.9896 280.1426 3726711 193.4318 307.9425  1.69447335114547

Suivez AYAME 1 DEB en temps réel avec AllMySat

Download on the App Store